[[{"header":{"parameterUnit":"m.s-1","parameterCategory":1,"la1":30.2991,"la2":30.254,"lo1":-89.0895,"lo2":-89.0444,"dy":0.0017,"dx":0.0017,"nx":28,"ny":28,"refTime":"2024-04-02T09:00:00:Z","depth":0,"parameterNumber":2,"parameterNumberName":"U-component_of_WINDS"},"data":[0,0,0,0,0,0,0,0,0,0,0,0,0,0,0,0,0,0,0,0,0,0,0,0,0,0,0,0,0,0,0,0,0,0,0,0,0,0,0,0,0,0,0,0,0,0,0,0,0,0,0,0,0,0,0,0,0,0,5.6216,5.6217,0,5.6283,5.6284,5.6285,5.6259,5.6258,5.6256,5.6255,5.6323,5.6326,5.6329,0,0,0,0,0,0,0,0,0,0,0,0,0,5.6067,5.6069,5.6216,5.6217,5.6218,5.6283,5.6284,5.6285,5.626,5.6258,5.6256,5.6254,5.6322,5.6325,5.6329,0,0,0,0,0,0,0,0,0,0,0,0,0,5.6132,5.607,5.6216,5.6213,5.6213,5.6283,5.6284,5.6285,5.626,5.6258,5.6255,5.6253,5.632,5.6325,5.633,5.6406,0,0,5.6345,5.6347,0,0,0,0,0,0,0,0,5.6129,5.6138,5.6213,5.6213,5.6214,5.6261,5.6256,5.6326,5.6261,5.6242,5.6255,5.6252,5.6304,5.631,5.6327,5.6409,5.6412,5.6345,5.6348,5.635,5.6351,0,0,0,0,0,0,0,5.6124,5.6135,5.6243,5.6214,5.6215,5.6209,5.6215,5.6269,5.6285,5.6244,5.6242,5.625,5.6304,5.6323,5.6329,5.6413,5.6345,5.6349,5.6352,5.6354,5.6564,5.6566,0,0,0,0,0,0,5.6119,5.6131,5.6241,5.6245,5.6165,5.6213,5.6221,5.6248,5.6284,5.6288,5.6252,5.6249,5.6316,5.6323,5.6331,5.6425,5.635,5.6355,5.6357,5.6561,5.6564,5.6567,0,0,0,0,0,0,5.6116,5.6129,5.6238,5.6188,5.6201,5.6218,5.6249,5.6251,5.627,5.6291,5.6294,5.6269,5.6314,5.6324,5.6388,5.6426,5.6357,5.6361,5.6558,5.6562,5.6566,5.6611,0,0,0,0,0,0,5.6112,5.6128,5.6157,5.6189,5.6204,5.6294,5.6251,5.6254,5.6278,5.6275,5.6307,5.6311,5.6313,5.6381,5.6393,5.6432,5.6365,5.6555,5.656,5.6564,5.6606,5.6616,5.6624,0,0,0,0,0,5.6107,5.6166,5.6159,5.6172,5.624,5.6296,5.6305,5.6307,5.6281,5.6311,5.6325,5.6309,5.6421,5.6388,5.6401,5.6442,5.6552,5.6558,5.6564,5.6602,5.6614,5.6624,0,0,0,0,0,0,5.6138,5.617,5.6162,5.6234,5.6262,5.6291,5.6328,5.6319,5.6355,5.635,5.6351,5.6359,5.6425,5.644,5.6403,5.6519,5.6483,5.6491,5.6507,5.6519,5.6528,5.6523,5.6369,0,0,0,0,0,5.6153,5.6196,5.6222,5.6282,5.6298,5.6311,5.6335,5.6335,5.6364,5.6376,5.6394,5.6424,5.6466,5.6493,5.6532,5.6608,5.6616,5.6643,5.6652,5.666,5.6667,5.6711,5.6724,5.6587,5.6587,5.6587,0,0,5.6185,5.6208,5.6235,5.6289,5.6312,5.6356,5.6321,5.6369,5.6403,5.6383,5.6445,5.646,5.6493,5.6564,5.6596,5.6579,5.6707,5.6667,5.6673,5.6677,5.6719,5.6732,5.6743,5.6591,5.659,5.6589,0,0,5.6266,5.6287,5.6341,5.6365,5.6399,5.6408,5.6421,5.6453,5.6462,5.6525,5.6512,5.6552,5.6623,5.6648,5.667,5.6763,5.6751,5.6776,5.6824,5.6866,5.6877,5.6887,5.6922,5.6934,5.6784,5.6784,5.6784,0,5.6301,5.6368,5.637,5.642,5.6445,5.6431,5.6486,5.6509,5.6554,5.6572,5.6552,5.6643,5.6664,5.6742,5.6765,5.6783,5.6799,5.6772,5.6875,5.6885,5.6894,5.6927,5.694,5.6787,5.6786,5.6786,5.6786,0,5.641,5.6457,5.6496,5.6542,5.6571,5.6624,5.6635,5.6664,5.6662,5.6674,5.6739,5.6764,5.6809,5.6827,5.6825,5.6906,5.6894,5.6875,5.6838,5.691,5.6941,5.6954,5.6791,5.679,5.6789,5.6788,0,0,5.651,5.6559,5.6573,5.6595,5.6633,5.667,5.6722,5.6768,5.6794,5.6827,5.6871,5.6934,5.6917,5.6942,5.6942,5.698,5.7054,5.6956,5.6957,5.6974,5.7147,5.7162,5.7176,5.7047,5.7049,5.7051,5.7145,0,5.6595,5.6688,5.6693,5.6777,5.6821,5.681,5.6856,5.6885,5.6898,5.6938,5.6951,5.6996,5.697,5.6985,5.7022,5.7037,5.7089,5.7031,5.7089,5.7091,5.7082,5.7192,5.7207,5.7294,5.7157,5.7159,5.716,0,5.6706,5.6744,5.6833,5.6868,5.6886,5.6928,5.6971,5.7009,5.7042,5.7049,5.7078,5.7074,5.7129,5.7091,5.7168,5.7128,5.7152,5.7164,5.7168,5.7173,5.713,5.7202,5.7322,5.7335,5.7179,5.7178,5.7176,0,5.6773,5.6845,5.6909,5.6927,5.6969,5.6999,5.7017,5.7048,5.7076,5.7114,5.7132,5.7176,5.72,5.7234,5.7242,5.7213,5.7319,5.7281,5.7327,5.7327,5.735,5.7348,5.7476,5.7365,5.7365,5.7364,5.7364,0,5.6867,5.6922,5.6939,5.6978,5.7041,5.7046,5.7108,5.7124,5.7153,5.7195,5.7188,5.7228,5.7236,5.7279,5.7286,5.7349,5.7359,5.7367,5.7368,5.7368,5.7367,5.7384,5.7378,5.7368,5.7367,5.7366,5.7366,0,5.6951,5.6965,5.7033,5.7068,5.7078,5.7123,5.7152,5.719,5.7203,5.7257,5.727,5.729,5.734,5.7352,5.741,5.7415,5.749,5.7485,5.7479,5.7479,5.7525,5.7521,5.7668,5.7689,5.7563,5.7564,5.7565,0,5.7011,5.7053,5.7093,5.7122,5.7142,5.7188,5.7217,5.7224,5.7255,5.7298,5.7331,5.738,5.7419,5.75,5.7519,5.7565,5.7561,5.761,5.7568,5.7567,5.7564,5.7561,5.7566,5.7618,5.7619,5.7621,5.7621,0,5.7116,5.7121,5.7163,5.7209,5.7243,5.7279,5.7313,5.7337,5.735,5.7384,5.7436,5.7467,5.7528,5.7577,5.7623,5.7643,5.7635,5.7635,5.7648,5.7648,5.7644,5.7648,5.7502,5.7631,5.763,5.7629,5.7629,5.7629,5.719,5.7229,5.7263,5.7311,5.7338,5.7371,5.7409,5.7427,5.747,5.7521,5.7523,5.7579,5.7614,5.7675,5.7698,5.7742,5.7727,5.7746,5.7751,5.7756,5.776,5.7636,5.7751,5.775,5.775,5.775,5.775,0,5.7296,5.7318,5.7362,5.7411,5.7449,5.7439,5.7477,5.751,5.756,5.7593,5.7632,5.7692,5.7741,5.7765,5.7814,5.7845,5.7842,5.7857,5.7855,5.786,5.777,5.7755,5.7858,5.7858,5.7858,5.7858,5.7858,5.7858,5.7356,5.742,5.743,5.7509,5.7531,5.7586,5.7609,5.764,5.7666,5.7734,5.7774,5.779,5.7821,5.7871,5.7916,5.7922,5.794,5.7957,5.7962,5.7877,5.7866,5.7856,5.7841,5.7961,5.7961,5.8048,5.8049,5.8049]},{"header":{"parameterUnit":"m.s-1","parameterCategory":1,"la1":30.2991,"la2":30.254,"lo1":-89.0895,"lo2":-89.0444,"dy":0.0017,"dx":0.0017,"nx":28,"ny":28,"refTime":"2024-04-02T09:00:00:Z","depth":0,"parameterNumber":3,"parameterNumberName":"V-component_of_WINDS"},"data":[0,0,0,0,0,0,0,0,0,0,0,0,0,0,0,0,0,0,0,0,0,0,0,0,0,0,0,0,0,0,0,0,0,0,0,0,0,0,0,0,0,0,0,0,0,0,0,0,0,0,0,0,0,0,0,0,0,0,-3.1134,-3.1134,0,-3.1173,-3.1173,-3.1173,-3.1197,-3.1197,-3.1197,-3.1197,-3.1235,-3.1236,-3.1236,0,0,0,0,0,0,0,0,0,0,0,0,0,-3.1081,-3.1082,-3.1134,-3.1135,-3.1135,-3.1173,-3.1173,-3.1174,-3.1197,-3.1197,-3.1197,-3.1197,-3.1234,-3.1235,-3.1237,0,0,0,0,0,0,0,0,0,0,0,0,0,-3.111,-3.1082,-3.1134,-3.1151,-3.1153,-3.1172,-3.1173,-3.1174,-3.1197,-3.1197,-3.1197,-3.1197,-3.1234,-3.1235,-3.1237,-3.1241,0,0,-3.1241,-3.1241,0,0,0,0,0,0,0,0,-3.1108,-3.1112,-3.1148,-3.115,-3.1152,-3.118,-3.1168,-3.1196,-3.1197,-3.118,-3.1197,-3.1197,-3.1216,-3.1219,-3.1226,-3.1243,-3.1245,-3.1241,-3.1242,-3.1242,-3.1243,0,0,0,0,0,0,0,-3.1106,-3.111,-3.1149,-3.1149,-3.1151,-3.1157,-3.1161,-3.1174,-3.1197,-3.1182,-3.1183,-3.1188,-3.1217,-3.1225,-3.1227,-3.1245,-3.1241,-3.1242,-3.1243,-3.1243,-3.127,-3.127,0,0,0,0,0,0,-3.1102,-3.1109,-3.1148,-3.115,-3.113,-3.1158,-3.1163,-3.1171,-3.1197,-3.1201,-3.1188,-3.1189,-3.1222,-3.1225,-3.1228,-3.1237,-3.1242,-3.1243,-3.1244,-3.127,-3.127,-3.127,0,0,0,0,0,0,-3.11,-3.1105,-3.1146,-3.113,-3.1136,-3.1159,-3.1168,-3.1172,-3.1179,-3.1201,-3.1205,-3.1191,-3.1222,-3.1226,-3.1239,-3.1238,-3.1244,-3.1245,-3.127,-3.127,-3.127,-3.1252,0,0,0,0,0,0,-3.1099,-3.1104,-3.1106,-3.113,-3.1137,-3.1156,-3.1168,-3.1172,-3.1181,-3.1183,-3.1205,-3.1209,-3.1223,-3.1236,-3.124,-3.124,-3.1246,-3.1271,-3.127,-3.127,-3.1253,-3.1251,-3.125,0,0,0,0,0,-3.1097,-3.1098,-3.1106,-3.111,-3.1139,-3.1156,-3.1159,-3.1176,-3.1181,-3.1183,-3.1198,-3.1208,-3.1238,-3.1237,-3.1241,-3.1242,-3.1271,-3.127,-3.127,-3.1253,-3.1252,-3.125,0,0,0,0,0,0,-3.1072,-3.1102,-3.111,-3.112,-3.1135,-3.116,-3.1162,-3.1173,-3.1187,-3.1188,-3.1208,-3.1213,-3.1223,-3.1234,-3.1233,-3.1249,-3.1256,-3.1256,-3.1241,-3.124,-3.1239,-3.1235,-3.1247,0,0,0,0,0,-3.1068,-3.1079,-3.1105,-3.111,-3.1118,-3.1139,-3.1147,-3.1159,-3.1175,-3.1181,-3.1197,-3.1212,-3.1226,-3.1233,-3.1246,-3.1255,-3.1261,-3.1258,-3.1256,-3.1255,-3.1255,-3.1262,-3.1262,-3.127,-3.127,-3.127,0,0,-3.1059,-3.1077,-3.1082,-3.1106,-3.1119,-3.1131,-3.1144,-3.1155,-3.1164,-3.1183,-3.1196,-3.1208,-3.1226,-3.1237,-3.1243,-3.1247,-3.1255,-3.1255,-3.1254,-3.1255,-3.1262,-3.1261,-3.126,-3.1269,-3.1269,-3.1269,0,0,-3.1049,-3.1063,-3.1071,-3.1085,-3.1105,-3.112,-3.1122,-3.1145,-3.1155,-3.1168,-3.1183,-3.1194,-3.1216,-3.1229,-3.1238,-3.1237,-3.1247,-3.124,-3.1233,-3.124,-3.1239,-3.1238,-3.1239,-3.1238,-3.124,-3.124,-3.124,0,-3.1035,-3.1053,-3.1073,-3.1084,-3.1094,-3.1114,-3.1122,-3.1134,-3.1158,-3.1165,-3.1169,-3.1198,-3.1212,-3.1227,-3.1227,-3.1234,-3.1237,-3.1237,-3.1238,-3.1237,-3.1237,-3.1237,-3.1237,-3.124,-3.124,-3.124,-3.124,0,-3.1036,-3.1048,-3.1052,-3.1076,-3.1087,-3.1096,-3.1118,-3.1126,-3.1138,-3.1152,-3.1167,-3.1185,-3.1203,-3.1207,-3.1218,-3.1224,-3.1226,-3.1234,-3.1241,-3.1235,-3.1236,-3.1236,-3.1238,-3.1239,-3.1239,-3.1239,0,0,-3.1008,-3.1046,-3.1047,-3.1059,-3.1085,-3.1095,-3.1106,-3.1125,-3.1132,-3.1149,-3.1159,-3.1178,-3.1186,-3.1197,-3.121,-3.1216,-3.1215,-3.1223,-3.1224,-3.1221,-3.1224,-3.1218,-3.1218,-3.1222,-3.1222,-3.1222,-3.1223,0,-3.1002,-3.1023,-3.1043,-3.1057,-3.107,-3.109,-3.11,-3.1117,-3.1131,-3.1144,-3.116,-3.1174,-3.1183,-3.119,-3.1197,-3.1213,-3.1215,-3.1214,-3.1232,-3.1232,-3.1226,-3.1218,-3.1211,-3.1211,-3.1223,-3.1223,-3.1223,0,-3.0997,-3.1014,-3.103,-3.1057,-3.1063,-3.1072,-3.1092,-3.1104,-3.1124,-3.1134,-3.1148,-3.1162,-3.1176,-3.1182,-3.1201,-3.12,-3.1209,-3.1218,-3.1219,-3.122,-3.1227,-3.122,-3.1211,-3.121,-3.1224,-3.1224,-3.1224,0,-3.0976,-3.1004,-3.1017,-3.1027,-3.1058,-3.1064,-3.1078,-3.1098,-3.1109,-3.1127,-3.1134,-3.1153,-3.1163,-3.1177,-3.1196,-3.1199,-3.1214,-3.1222,-3.1223,-3.1222,-3.1224,-3.1224,-3.1216,-3.123,-3.123,-3.123,-3.123,0,-3.0967,-3.0976,-3.1009,-3.1017,-3.1028,-3.1051,-3.1062,-3.1077,-3.1096,-3.1108,-3.1126,-3.1137,-3.1162,-3.1176,-3.1191,-3.1206,-3.121,-3.1219,-3.1222,-3.1217,-3.1216,-3.1222,-3.1223,-3.123,-3.123,-3.123,-3.123,0,-3.0945,-3.0967,-3.0984,-3.1013,-3.1021,-3.1028,-3.1054,-3.1063,-3.1079,-3.1094,-3.1099,-3.1125,-3.1143,-3.1164,-3.1188,-3.1198,-3.1211,-3.1217,-3.1204,-3.1206,-3.1207,-3.1206,-3.1203,-3.1204,-3.1217,-3.1217,-3.1217,0,-3.0937,-3.0945,-3.0976,-3.0986,-3.0999,-3.1015,-3.1027,-3.1051,-3.1062,-3.1088,-3.1094,-3.1114,-3.113,-3.1158,-3.1179,-3.1198,-3.1204,-3.1202,-3.1207,-3.1202,-3.1205,-3.1204,-3.1205,-3.12,-3.12,-3.1199,-3.1199,0,-3.0921,-3.0933,-3.0949,-3.0971,-3.0985,-3.1003,-3.1021,-3.1028,-3.1056,-3.1068,-3.1087,-3.11,-3.1127,-3.1146,-3.1168,-3.1182,-3.1195,-3.1198,-3.1199,-3.1193,-3.1186,-3.119,-3.12,-3.1197,-3.1198,-3.1198,-3.1198,-3.1198,-3.0906,-3.0915,-3.0939,-3.0958,-3.0975,-3.0992,-3.1003,-3.1022,-3.1039,-3.1062,-3.1076,-3.1095,-3.1117,-3.1149,-3.1163,-3.1178,-3.1183,-3.1184,-3.1185,-3.1185,-3.1184,-3.1184,-3.1182,-3.1182,-3.1182,-3.1183,-3.1183,0,-3.0891,-3.0909,-3.0926,-3.0952,-3.0968,-3.0981,-3.1003,-3.1014,-3.1031,-3.1052,-3.1069,-3.1092,-3.1111,-3.1135,-3.1156,-3.1164,-3.1171,-3.1169,-3.1168,-3.1172,-3.1178,-3.1175,-3.1163,-3.1163,-3.1163,-3.1163,-3.1163,-3.1163,-3.0885,-3.0901,-3.0916,-3.0941,-3.0959,-3.0978,-3.099,-3.1007,-3.1023,-3.1049,-3.1066,-3.1082,-3.1104,-3.1127,-3.1146,-3.1153,-3.116,-3.1156,-3.1164,-3.1169,-3.1171,-3.1172,-3.117,-3.1157,-3.1157,-3.1157,-3.1157,-3.1157]}]]